Preview of NWS' New Version of Forecast
This preview is not operational and should not be used for support decisions.

Regional Weather Roundup (RWR)

Issued by National Weather Service (NWS)

                            
000
ASUS43 KLSX 210457
RWRMO 

WEATHER SUMMARY FOR MISSOURI
NATIONAL WEATHER SERVICE SPRINGFIELD MO
1200 AM CDT SAT SEP 21 2019

NOTE: "FAIR" INDICATES FEW OR NO CLOUDS BELOW 12,000 FEET WITH NO
       SIGNIFICANT WEATHER AND/OR OBSTRUCTIONS TO VISIBILITY.
       CURRENT SKY AND/OR WEATHER CONDITIONS ARE NOT AVAILABLE FOR
       CHILLICOTHE AND FARMINGTON.

MOZ001>031-035>038-043-044-053-054-210600-
...NORTHERN AND WESTERN MISSOURI...
  
CITY           SKY/WX    TMP DP  RH WIND       PRES   REMARKS
KANSAS CTY INT DRIZZLE   70  70 100 S13       29.98S                  
LEE'S SUMMIT   CLOUDY    72  68  87 S15G24    30.00S                  
ST JOSEPH      CLOUDY    72  69  90 S13       29.96S FOG              
CHILLICOTHE      N/A     73  68  84 S7        30.01S                  
     
$$
MOZ066>068-077>081-088>096-101>105-210600-
...SOUTHWEST MISSOURI...
  
CITY           SKY/WX    TMP DP  RH WIND       PRES   REMARKS
SPRINGFIELD    CLOUDY    71  67  87 SE15      30.07S                  
JOPLIN         CLOUDY    73  69  87 S8        30.04R                  
               
$$
MOZ032>034-039>042-045>050-055>058-069>072-210600-
...CENTRAL MISSOURI...  
  
CITY           SKY/WX    TMP DP  RH WIND       PRES   REMARKS
COLUMBIA       NOT AVBL                                               
JEFFERSON CITY MOCLDY    76  68  76 S9        30.06S                  
SEDALIA        CLOUDY    71  68  90 S13       30.05S                  
WARRENSBURG    CLOUDY    72  66  83 S13       30.02S                  
               
$$
MOZ051-052-059>065-210600-
...EAST CENTRAL MISSOURI...
  
CITY           SKY/WX    TMP DP  RH WIND       PRES   REMARKS
ST LOUIS INTL  MOCLDY    75  69  81 S6        30.12S                  
                   
$$
MOZ072>076-082>087-097>100-106>115-210600-
...SOUTH CENTRAL AND SOUTHEAST MISSOURI...
  
CITY           SKY/WX    TMP DP  RH WIND       PRES   REMARKS
CAPE GIRARDEAU FAIR      70  68  93 SE5       30.14S FOG              
POPLAR BLUFF   FAIR      71  70  96 CALM      30.13S                  
WEST PLAINS    MOCLDY    71  68  90 SE7       30.15S                  
                                       
$$